1485010800.16,4484,10.63,74164.8,-5.89,-39.35,-39.53,0,*68
1485010801.39,4485,10.56,74160.8,-5.87,-39.47,-39.53,0,*62
1485010802.62,4486,10.63,74160.0,-5.89,-39.47,-39.65,0,*6A
1485010803.85,4487,10.63,74164.8,-5.89,-39.47,-39.65,0,*6B
1485010805.1,4488,10.63,74162.0,-5.89,-39.53,-39.65,0,*61
1485010806.33,4489,10.56,74162.0,-5.87,-39.47,-39.53,0,*6E
1485010807.56,4490,10.63,74166.3,-5.89,-39.47,-39.65,0,*6D
1485010808.78,4491,10.63,74162.3,-5.87,-39.35,-39.53,0,*62
1485010810.0,4492,10.63,74164.0,-5.87,-39.29,-39.47,0,*69
1485010811.22,4493,10.63,74160.5,-5.87,-39.29,-39.35,0,*6D
1485010812.44,4494,10.63,74162.3,-5.87,-39.29,-39.47,0,*6F
1485010813.66,4495,10.56,74162.5,-5.87,-39.23,-39.35,0,*61
1485010814.86,4496,10.56,74160.0,-5.87,-39.47,-39.47,0,*65
1485010816.05,4497,10.63,74164.8,-5.87,-39.35,-39.47,0,*61
1485010817.25,4498,10.63,74164.0,-5.87,-39.35,-39.47,0,*6E
1485010818.47,4499,10.56,74160.5,-5.87,-39.29,-39.47,0,*62
1485010819.66,4500,10.56,74160.8,-5.87,-39.35,-39.35,0,*6B
1485010820.86,4501,10.63,74164.0,-5.87,-39.47,-39.47,0,*6A
1485010822.1,4502,10.63,74164.5,-5.89,-39.29,-39.47,0,*6F
1485010823.35,4503,10.63,74160.8,-5.89,-39.35,-39.53,0,*66
1485010824.59,4504,10.56,74158.8,-5.87,-39.53,-39.53,0,*6F
1485010825.81,4505,10.63,74156.8,-5.87,-39.29,-39.47,0,*66
1485010827.01,4506,10.56,74156.5,-5.87,-39.47,-39.47,0,*6D
1485010828.26,4507,10.63,74156.0,-5.89,-39.65,-39.71,0,*67
1485010829.52,4508,10.63,74158.0,-5.89,-39.71,-39.65,0,*68
1485010830.78,4509,10.56,74158.5,-5.87,-39.71,-39.71,0,*62
1485010832.04,4510,10.56,74152.8,-5.89,-39.53,-39.65,0,*61
1485010833.27,4511,10.56,74154.5,-5.89,-39.65,-39.65,0,*65
1485010834.52,4512,10.63,74156.3,-5.89,-39.65,-39.53,0,*63
1485010835.75,4513,10.63,74152.0,-5.89,-39.65,-39.65,0,*67
1485010837.02,4514,10.63,74150.8,-5.89,-39.53,-39.53,0,*60
1485010838.24,4515,10.63,74152.8,-5.89,-39.35,-39.47,0,*64
1485010839.46,4516,10.63,74156.0,-5.89,-39.35,-39.47,0,*67
1485010840.68,4517,10.63,74152.0,-5.89,-39.35,-39.35,0,*63
1485010841.92,4518,10.63,74154.8,-5.89,-39.29,-39.47,0,*64
1485010843.19,4519,10.56,74152.0,-5.89,-39.23,-39.29,0,*67
1485010844.44,4520,10.56,74148.3,-5.89,-39.23,-39.35,0,*60
1485010845.68,4521,10.63,74154.8,-5.89,-39.29,-39.35,0,*6B
1485010846.92,4522,10.56,74150.3,-5.89,-39.29,-39.35,0,*68
1485010848.16,4523,10.63,74152.3,-5.89,-39.35,-39.53,0,*64
1485010849.41,4524,10.63,74154.0,-5.89,-39.35,-39.53,0,*63
1485010850.63,4525,10.56,74154.3,-5.89,-39.47,-39.35,0,*67
1485010851.85,4526,10.63,74156.0,-5.89,-39.35,-39.47,0,*64
1485010853.07,4527,10.63,74156.3,-5.89,-39.35,-39.47,0,*65
1485010854.32,4528,10.63,74158.8,-5.89,-39.47,-39.53,0,*6A
1485010855.55,4529,10.63,74158.8,-5.89,-39.35,-39.65,0,*6B
1485010856.78,4530,10.63,74156.0,-5.89,-39.47,-39.65,0,*66
1485010858.03,4531,10.63,74156.3,-5.89,-39.47,-39.53,0,*62
1485010859.29,4532,10.56,74152.3,-5.91,-39.59,-39.71,0,*67
1485010860.55,4533,10.56,74154.0,-5.91,-39.59,-39.71,0,*66
1485010861.81,4534,10.56,74154.3,-5.93,-39.65,-39.79,0,*64
1485010863.07,4535,10.63,74154.8,-5.91,-39.59,-39.71,0,*60
1485010864.34,4536,10.56,74156.3,-5.91,-39.59,-39.71,0,*63
1485010865.6,4537,10.63,74156.5,-5.91,-39.59,-39.59,0,*68
1485010866.86,4538,10.63,74156.0,-5.91,-39.41,-39.59,0,*6E
1485010868.11,4539,10.63,74154.3,-5.91,-39.41,-39.59,0,*6F
1485010869.36,4540,10.56,74154.3,-5.93,-39.41,-39.47,0,*6C
1485010870.61,4541,10.56,74152.8,-5.91,-39.41,-39.53,0,*6A
1485010871.83,4542,10.63,74158.8,-5.91,-39.35,-39.41,0,*69
1485010873.05,4543,10.56,74156.3,-5.91,-39.29,-39.35,0,*66
1485010874.3,4544,10.56,74156.5,-5.93,-39.23,-39.35,0,*69
1485010875.55,4545,10.63,74160.8,-5.93,-39.23,-39.35,0,*68
1485010876.79,4546,10.56,74156.5,-5.91,-39.29,-39.41,0,*60
1485010878.02,4547,10.56,74156.8,-5.91,-39.35,-39.41,0,*6C
1485010879.24,4548,10.63,74160.3,-5.91,-39.15,-39.35,0,*62
1485010880.47,4549,10.63,74160.3,-5.91,-39.09,-39.29,0,*63
1485010881.7,4550,10.56,74158.8,-5.91,-39.15,-39.35,0,*6B
1485010882.95,4551,10.63,74162.0,-5.87,-38.91,-39.03,0,*65
1485010884.2,4552,10.63,74164.5,-5.89,-38.85,-39.03,0,*6D
1485010885.45,4553,10.63,74166.0,-5.89,-39.03,-39.09,0,*69
1485010886.73,4554,10.63,74164.8,-5.89,-38.91,-39.03,0,*6E
1485010888.0,4555,10.56,74160.3,-5.89,-38.91,-39.03,0,*6F
1485010889.25,4556,10.63,74162.0,-5.89,-38.85,-38.91,0,*63
1485010890.49,4557,10.56,74162.3,-5.89,-39.09,-39.09,0,*67
1485010891.74,4558,10.63,74164.3,-5.89,-39.09,-39.23,0,*60
1485010893.01,4559,10.56,74160.8,-5.89,-38.91,-39.03,0,*63
1485010894.28,4560,10.56,74160.0,-5.89,-38.91,-39.03,0,*69
1485010895.53,4561,10.63,74162.5,-5.87,-38.91,-39.03,0,*66
1485010896.74,4562,10.63,74160.8,-5.87,-38.85,-39.09,0,*6A
1485010897.97,4563,10.56,74158.3,-5.87,-38.85,-39.03,0,*61
1485010899.22,4564,10.63,74156.8,-5.87,-38.91,-38.91,0,*69
1485010900.43,4565,10.63,74156.0,-5.87,-39.09,-39.09,0,*68
1485010901.68,4566,10.63,74158.0,-5.87,-39.03,-39.23,0,*69
1485010902.91,4567,10.63,74156.0,-5.87,-38.91,-39.09,0,*6A
1485010904.19,4568,10.56,74150.5,-5.85,-39.15,-39.23,0,*62
1485010905.4,4569,10.63,74146.0,-5.87,-39.29,-39.47,0,*6C
1485010906.62,4570,10.63,74150.5,-5.87,-39.23,-39.35,0,*6B
1485010907.87,4571,10.63,74146.5,-5.89,-39.29,-39.47,0,*6B
1485010909.09,4572,10.63,74146.8,-5.87,-39.29,-39.35,0,*63
1485010910.34,4573,10.63,74144.8,-5.87,-39.23,-39.29,0,*65
1485010911.59,4574,10.63,74144.5,-5.87,-39.23,-39.29,0,*62
1485010912.81,4575,10.63,74146.0,-5.87,-39.23,-39.35,0,*6E
1485010914.0,4576,10.63,74148.8,-5.87,-39.35,-39.35,0,*6A
1485010915.22,4577,10.56,74146.5,-5.89,-39.35,-39.47,0,*60
1485010916.44,4578,10.56,74144.8,-5.87,-39.29,-39.47,0,*6C
1485010917.66,4579,10.56,74144.0,-5.87,-39.29,-39.35,0,*68
1485010918.88,4580,10.63,74154.3,-5.87,-39.23,-39.47,0,*61
1485010920.12,4581,10.56,74152.3,-5.89,-39.29,-39.35,0,*61
1485010921.34,4582,10.63,74152.5,-5.87,-39.23,-39.35,0,*66
1485010922.56,4583,10.63,74154.8,-5.87,-39.29,-39.47,0,*68
1485010923.78,4584,10.63,74152.8,-5.89,-39.35,-39.47,0,*6C
1485010925.02,4585,10.63,74154.0,-5.87,-39.53,-39.53,0,*66
1485010926.22,4586,10.63,74154.8,-5.87,-39.47,-39.47,0,*65
1485010927.44,4587,10.63,74152.3,-5.89,-39.35,-39.47,0,*6F
1485010928.67,4588,10.63,74154.8,-5.87,-39.47,-39.53,0,*6E
1485010929.91,4589,10.63,74154.3,-5.89,-39.35,-39.53,0,*64
1485010931.14,4590,10.63,74154.3,-5.87,-39.47,-39.53,0,*67
1485010932.38,4591,10.63,74152.3,-5.89,-39.35,-39.53,0,*6D
1485010933.63,4592,10.63,74156.8,-5.89,-39.47,-39.53,0,*6B
1485010934.88,4593,10.56,74154.8,-5.91,-39.41,-39.71,0,*65
1485010936.14,4594,10.63,74158.5,-5.91,-39.53,-39.59,0,*6B
1485010937.38,4595,10.63,74158.8,-5.89,-39.35,-39.53,0,*69
1485010938.63,4596,10.63,74158.5,-5.89,-39.35,-39.53,0,*6A
1485010939.85,4597,10.63,74158.0,-5.89,-39.35,-39.47,0,*6E
1485010941.1,4598,10.63,74152.5,-5.89,-39.47,-39.53,0,*61
1485010942.35,4599,10.63,74152.8,-5.89,-39.53,-39.65,0,*60
1485010943.6,4600,10.56,74148.3,-5.89,-39.65,-39.71,0,*63
1485010944.87,4601,10.63,74152.8,-5.91,-39.59,-39.59,0,*6E
1485010946.13,4602,10.63,74152.8,-5.91,-39.59,-39.71,0,*67
1485010947.38,4603,10.56,74150.0,-5.91,-39.53,-39.71,0,*6C
1485010948.59,4604,10.63,74154.8,-5.91,-39.65,-39.85,0,*65
1485010949.88,4605,10.56,74148.3,-5.93,-39.59,-39.79,0,*6A
1485010951.13,4606,10.63,74156.0,-5.91,-39.53,-39.79,0,*61
1485010952.38,4607,10.56,74154.3,-5.91,-39.53,-39.59,0,*62
1485010953.67,4608,10.63,74156.0,-5.93,-39.59,-39.59,0,*65
1485010954.93,4609,10.63,74156.0,-5.93,-39.47,-39.59,0,*6B
1485010956.21,4610,10.63,74158.3,-5.93,-39.41,-39.59,0,*65
1485010957.51,4611,10.63,74156.5,-5.93,-39.59,-39.59,0,*6D
1485010958.73,4612,10.63,74156.0,-5.91,-39.35,-39.53,0,*6C
1485010959.95,4613,10.63,74158.8,-5.91,-39.35,-39.41,0,*6E
1485010961.22,4614,10.63,74158.8,-5.93,-39.23,-39.41,0,*6C
1485010962.44,4615,10.63,74158.5,-5.91,-39.29,-39.35,0,*66
1485010963.67,4616,10.63,74160.3,-5.91,-39.15,-39.35,0,*6A
1485010964.95,4617,10.63,74164.5,-5.93,-39.23,-39.41,0,*6F
1485010966.22,4618,10.63,74160.0,-5.93,-39.23,-39.41,0,*60
1485010967.48,4619,10.56,74160.5,-5.93,-39.35,-39.59,0,*6F
1485010968.76,4620,10.63,74160.8,-5.93,-39.41,-39.59,0,*66
1485010970.02,4621,10.56,74156.8,-5.93,-39.47,-39.59,0,*61
1485010971.24,4622,10.63,74162.5,-5.93,-39.35,-39.47,0,*68
1485010972.49,4623,10.63,74160.0,-5.93,-39.41,-39.47,0,*6A
1485010973.77,4624,10.63,74158.5,-5.93,-39.41,-39.59,0,*62
1485010975.03,4625,10.63,74154.8,-5.93,-39.35,-39.59,0,*60
1485010976.31,4626,10.63,74154.3,-5.93,-39.41,-39.59,0,*60
1485010977.54,4627,10.63,74154.8,-5.93,-39.47,-39.47,0,*68
1485010978.77,4628,10.56,74148.3,-5.95,-39.47,-39.59,0,*6E
1485010979.97,4629,10.63,74150.8,-5.95,-39.35,-39.47,0,*65
1485010981.19,4630,10.63,74150.0,-5.93,-39.35,-39.47,0,*6B
1485010982.45,4631,10.63,74148.5,-5.95,-39.41,-39.41,0,*69
1485010983.71,4632,10.63,74150.3,-5.95,-39.41,-39.59,0,*63
1485010984.99,4633,10.63,74152.3,-5.93,-39.41,-39.59,0,*64
1485010986.25,4634,10.56,74148.0,-5.93,-39.47,-39.59,0,*65
1485010987.49,4635,10.63,74152.3,-5.95,-39.47,-39.59,0,*62
1485010988.72,4636,10.63,74150.0,-5.95,-39.47,-39.59,0,*61
1485010989.96,4637,10.56,74150.5,-5.95,-39.47,-39.59,0,*60
1485010991.22,4638,10.63,74148.8,-5.95,-39.59,-39.59,0,*60
1485010992.46,4639,10.63,74154.3,-5.95,-39.47,-39.59,0,*6E
1485010993.66,4640,10.63,74152.5,-5.97,-39.47,-39.65,0,*6D
1485010994.87,4641,10.63,74148.8,-5.97,-39.47,-39.65,0,*6C
1485010996.1,4642,10.63,74150.3,-5.97,-39.59,-39.65,0,*60
1485010997.33,4643,10.63,74152.0,-5.97,-39.47,-39.59,0,*61
1485010998.53,4644,10.63,74150.8,-5.95,-39.47,-39.47,0,*6B
1485010999.76,4645,10.63,74152.5,-5.97,-39.65,-39.79,0,*65
1485011001.0,4646,10.63,74154.3,-5.95,-39.59,-39.65,0,*66
1485011002.26,4647,10.63,74152.3,-5.97,-39.59,-39.79,0,*68
1485011003.5,4648,10.63,74148.5,-5.95,-39.59,-39.65,0,*68
1485011004.73,4649,10.63,74150.3,-5.97,-39.41,-39.65,0,*62
1485011005.97,4650,10.63,74162.3,-5.97,-39.59,-39.65,0,*63
1485011007.18,4651,10.63,74158.5,-5.97,-39.41,-39.47,0,*6B
1485011008.37,4652,10.63,74158.0,-5.97,-39.35,-39.47,0,*6B
1485011009.59,4653,10.63,74152.3,-5.97,-39.23,-39.35,0,*68
1485011010.84,4654,10.63,74150.8,-5.97,-39.41,-39.59,0,*61
1485011012.04,4655,10.63,74150.0,-5.97,-39.47,-39.65,0,*69
1485011013.27,4656,10.63,74154.3,-5.97,-39.47,-39.59,0,*65
1485011014.52,4657,10.56,74148.8,-5.97,-39.41,-39.59,0,*62
1485011015.75,4658,10.63,74154.0,-5.97,-39.47,-39.59,0,*6B
1485011016.98,4659,10.56,74148.3,-5.97,-39.59,-39.65,0,*6A
1485011018.23,4660,10.63,74156.3,-5.97,-39.41,-39.59,0,*66
1485011019.45,4661,10.63,74156.5,-5.97,-39.41,-39.47,0,*68
1485011020.7,4662,10.63,74156.8,-5.97,-39.23,-39.59,0,*60
1485011021.97,4663,10.63,74154.8,-5.99,-39.41,-39.53,0,*61
1485011023.19,4664,10.63,74154.8,-5.99,-39.47,-39.65,0,*65
1485011024.43,4665,10.63,74156.3,-5.99,-39.23,-39.47,0,*66
1485011025.67,4666,10.63,74158.3,-5.99,-39.29,-39.47,0,*6F
1485011026.92,4667,10.63,74156.0,-5.99,-39.41,-39.65,0,*60
1485011028.19,4668,10.63,74156.5,-5.99,-39.23,-39.41,0,*6D
1485011029.46,4669,10.63,74156.5,-5.99,-39.23,-39.41,0,*6C
1485011030.7,4670,10.56,74152.8,-6.01,-39.29,-39.53,0,*6F
1485011031.94,4671,10.63,74156.0,-6.01,-39.29,-39.53,0,*6E
1485011033.18,4672,10.63,74158.0,-5.99,-39.47,-39.53,0,*67
1485011034.42,4673,10.63,74162.5,-6.01,-39.29,-39.41,0,*6F
1485011035.67,4674,10.63,74158.8,-5.99,-39.29,-39.65,0,*6C
1485011036.92,4675,10.63,74158.3,-5.99,-39.65,-39.71,0,*60
1485011038.17,4676,10.63,74156.8,-5.99,-39.65,-39.71,0,*63
1485011039.42,4677,10.63,74158.5,-6.01,-39.41,-39.53,0,*66
1485011040.65,4678,10.63,74158.0,-5.99,-39.65,-39.65,0,*68
1485011041.85,4679,10.63,74158.8,-6.01,-39.47,-39.65,0,*6B
1485011043.1,4680,10.63,74156.8,-5.99,-39.53,-39.65,0,*6A
1485011044.33,4681,10.63,74160.0,-6.01,-39.41,-39.65,0,*6A
1485011045.57,4682,10.63,74160.8,-6.01,-39.53,-39.71,0,*6F
1485011046.82,4683,10.56,74158.5,-5.99,-39.53,-39.65,0,*69
1485011048.04,4684,10.63,74162.0,-6.01,-39.41,-39.47,0,*6F
1485011049.28,4685,10.63,74160.5,-5.99,-39.29,-39.47,0,*62
1485011050.52,4686,10.63,74158.3,-6.01,-39.29,-39.53,0,*66
1485011051.76,4687,10.63,74160.0,-6.01,-39.41,-39.53,0,*69
1485011052.98,4688,10.63,74160.5,-6.01,-39.23,-39.47,0,*67
1485011054.21,4689,10.63,74162.3,-6.01,-39.41,-39.65,0,*62
1485011055.41,4690,10.63,74156.0,-6.01,-39.47,-39.65,0,*6C
1485011056.66,4691,10.63,74158.5,-6.01,-39.53,-39.71,0,*6D
1485011057.91,4692,10.63,74160.8,-6.01,-39.41,-39.71,0,*6D
1485011059.16,4693,10.63,74160.8,-6.05,-39.53,-39.71,0,*6B
1485011060.38,4694,10.63,74160.5,-6.05,-39.47,-39.53,0,*69
1485011061.61,4695,10.63,74162.0,-6.05,-39.47,-39.71,0,*68
1485011062.86,4696,10.63,74162.0,-6.05,-39.53,-39.71,0,*6E
1485011064.08,4697,10.63,74166.3,-6.01,-39.29,-39.47,0,*63
1485011065.29,4698,10.63,74162.8,-6.01,-39.41,-39.47,0,*62
1485011066.51,4699,10.63,74158.5,-6.05,-39.29,-39.47,0,*69
1485011067.74,4700,10.63,74160.0,-6.05,-39.47,-39.59,0,*6F
1485011068.97,4701,10.63,74158.8,-6.05,-39.47,-39.59,0,*6E
1485011070.19,4702,10.63,74158.8,-6.05,-39.47,-39.53,0,*67
1485011071.41,4703,10.63,74162.5,-6.05,-39.35,-39.53,0,*63
1485011072.63,4704,10.63,74160.8,-6.05,-39.29,-39.47,0,*6C
1485011073.9,4705,10.63,74162.5,-6.07,-39.23,-39.53,0,*60
1485011075.12,4706,10.63,74162.8,-6.05,-39.29,-39.47,0,*6E
1485011076.35,4707,10.63,74164.8,-6.01,-39.09,-39.29,0,*61
1485011077.63,4708,10.63,74162.0,-6.07,-39.23,-39.59,0,*67
1485011078.85,4709,10.63,74162.8,-6.05,-39.35,-39.53,0,*69
1485011080.06,4710,10.63,74162.8,-6.05,-39.29,-39.47,0,*69
1485011081.31,4711,10.63,74160.5,-6.05,-39.23,-39.53,0,*67
1485011082.55,4712,10.63,74164.8,-6.05,-39.29,-39.53,0,*6E
1485011083.81,4713,10.63,74160.3,-6.07,-39.35,-39.59,0,*6A
1485011085.03,4714,10.63,74160.5,-6.05,-39.35,-39.59,0,*6F
1485011086.29,4715,10.63,74160.3,-6.07,-39.35,-39.59,0,*6C
1485011087.51,4716,10.63,74162.3,-6.05,-39.35,-39.53,0,*67
1485011088.73,4717,10.63,74162.0,-6.05,-39.47,-39.53,0,*63
1485011089.96,4718,10.63,74156.5,-6.05,-39.47,-39.59,0,*66
1485011091.19,4719,10.63,74156.3,-6.05,-39.47,-39.59,0,*67
1485011092.42,4720,10.63,74160.5,-6.05,-39.53,-39.65,0,*67
1485011093.7,4721,10.63,74154.5,-6.07,-39.53,-39.59,0,*6B
1485011094.95,4722,10.63,74158.5,-6.07,-39.35,-39.59,0,*68
1485011096.23,4723,10.63,74158.0,-6.07,-39.41,-39.41,0,*63
1485011097.52,4724,10.63,74160.0,-6.07,-39.59,-39.59,0,*64
1485011098.76,4725,10.63,74162.0,-6.07,-39.35,-39.53,0,*65
1485011099.98,4726,10.63,74158.5,-6.05,-39.29,-39.47,0,*6C
1485011101.26,4727,10.63,74160.3,-6.07,-39.41,-39.59,0,*6E
1485011102.49,4728,10.63,74156.0,-6.05,-39.47,-39.59,0,*65
1485011103.78,4729,10.63,74160.5,-6.07,-39.41,-39.59,0,*60
1485011105.06,4730,10.63,74158.0,-6.07,-39.59,-39.79,0,*63
1485011106.27,4731,10.63,74156.8,-6.05,-39.47,-39.65,0,*62
1485011107.53,4732,10.63,74158.5,-6.07,-39.41,-39.65,0,*65
1485011108.81,4733,10.63,74160.0,-6.07,-39.41,-39.59,0,*6B
1485011110.09,4734,10.63,74164.5,-6.07,-39.23,-39.59,0,*68
1485011111.37,4735,10.63,74160.8,-6.07,-39.41,-39.59,0,*6D
1485011112.63,4736,10.63,74162.3,-6.07,-39.41,-39.65,0,*61
1485011113.91,4737,10.63,74166.0,-6.07,-39.41,-39.59,0,*6F
1485011115.14,4738,10.63,74162.0,-6.05,-39.47,-39.71,0,*6E
1485011116.39,4739,10.63,74166.3,-6.07,-39.53,-39.65,0,*6D
1485011117.61,4740,10.63,74166.5,-6.05,-39.35,-39.53,0,*64
1485011118.87,4741,10.63,74160.3,-6.07,-39.35,-39.59,0,*6D
1485011120.14,4742,10.63,74162.3,-6.07,-39.41,-39.53,0,*67
1485011121.39,4743,10.63,74166.8,-6.07,-39.35,-39.53,0,*65
1485011122.67,4744,10.63,74166.5,-6.07,-39.15,-39.41,0,*63
1485011123.92,4745,10.63,74162.8,-6.07,-39.15,-39.35,0,*61
1485011125.19,4746,10.63,74164.5,-6.07,-39.23,-39.23,0,*60
1485011126.47,4747,10.63,74160.0,-6.07,-39.23,-39.41,0,*65
1485011127.72,4748,10.63,74160.8,-6.07,-39.15,-39.35,0,*6C
1485011128.99,4749,10.63,74162.5,-6.07,-39.41,-39.53,0,*6C
1485011130.26,4750,10.63,74164.5,-6.07,-39.23,-39.53,0,*60
1485011131.55,4751,10.63,74158.5,-6.07,-39.41,-39.59,0,*6F
1485011132.83,4752,10.63,74160.0,-6.07,-39.41,-39.79,0,*6E
1485011134.12,4753,10.63,74158.3,-6.07,-39.79,-39.79,0,*64
1485011135.39,4754,10.63,74158.3,-6.07,-39.53,-39.59,0,*69
1485011136.65,4755,10.63,74162.3,-6.07,-39.65,-39.79,0,*6F
1485011137.86,4756,10.63,74158.8,-6.09,-39.65,-39.65,0,*6F
1485011139.1,4757,10.63,74162.5,-6.09,-39.59,-39.65,0,*61
1485011140.34,4758,10.63,74162.5,-6.09,-39.59,-39.65,0,*6E
1485011141.58,4759,10.63,74160.5,-6.09,-39.59,-39.65,0,*6F
1485011142.83,4760,10.63,74160.5,-6.09,-39.53,-39.79,0,*62
1485011144.09,4761,10.63,74160.0,-6.09,-39.71,-39.79,0,*63
1485011145.34,4762,10.63,74160.3,-6.11,-39.65,-39.71,0,*64
1485011146.6,4763,10.63,74160.0,-6.11,-39.71,-39.85,0,*6B
1485011147.83,4764,10.63,74158.3,-6.09,-39.35,-39.59,0,*64
1485011149.06,4765,10.63,74156.8,-6.11,-39.47,-39.65,0,*66
1485011150.29,4766,10.63,74158.8,-6.11,-39.65,-39.85,0,*6B
1485011151.52,4767,10.63,74158.3,-6.11,-39.65,-39.85,0,*6A
1485011152.81,4768,10.63,74158.5,-6.11,-39.59,-39.71,0,*61
1485011154.1,4769,10.63,74158.5,-6.11,-39.59,-39.59,0,*6A
1485011155.33,4770,10.63,74156.0,-6.11,-39.47,-39.65,0,*62
1485011156.57,4771,10.63,74156.5,-6.11,-39.47,-39.65,0,*63
1485011157.85,4772,10.63,74154.5,-6.11,-39.59,-39.71,0,*6A
1485011159.06,4773,10.63,74158.3,-6.13,-39.65,-39.85,0,*6D
1485011160.27,4774,10.63,74156.0,-6.13,-39.91,-39.85,0,*61
1485011161.48,4775,10.63,74152.3,-6.13,-39.85,-39.91,0,*60
1485011162.73,4776,10.63,74158.8,-6.13,-39.41,-39.59,0,*6F
1485011163.99,4777,10.63,74156.3,-6.13,-39.29,-39.59,0,*60
1485011165.26,4778,10.63,74156.0,-6.11,-39.29,-39.59,0,*6D
1485011166.55,4779,10.63,74158.3,-6.11,-39.41,-39.59,0,*62
1485011167.8,4780,10.63,74156.3,-6.11,-39.47,-39.71,0,*68
1485011169.04,4781,10.63,74156.5,-6.13,-39.65,-39.71,0,*6B
1485011170.3,4782,10.63,74158.0,-6.13,-39.59,-39.71,0,*67
1485011171.54,4783,10.63,74156.8,-6.13,-39.59,-39.85,0,*6D
1485011172.78,4784,10.63,74154.0,-6.13,-39.59,-39.65,0,*64
1485011174.02,4785,10.63,74156.8,-6.13,-39.59,-39.65,0,*65
1485011175.23,4786,10.63,74158.0,-6.13,-39.47,-39.65,0,*69
1485011176.47,4787,10.63,74156.3,-6.13,-39.59,-39.65,0,*67
1485011177.7,4788,10.63,74156.5,-6.13,-39.65,-39.71,0,*62
1485011178.94,4789,10.56,74154.8,-6.13,-39.47,-39.71,0,*63
1485011180.15,4790,10.63,74154.3,-6.13,-39.47,-39.65,0,*6E
1485011181.41,4791,10.63,74156.5,-6.13,-39.59,-39.71,0,*65
1485011182.67,4792,10.63,74156.0,-6.13,-39.59,-39.71,0,*66
1485011183.94,4793,10.63,74156.3,-6.13,-39.59,-39.71,0,*67
1485011185.14,4794,10.63,74158.0,-6.13,-39.65,-39.85,0,*64
1485011186.38,4795,10.63,74158.0,-6.13,-39.65,-39.71,0,*6E
1485011187.61,4796,10.63,74158.0,-6.13,-39.59,-39.85,0,*69
1485011188.87,4797,10.63,74158.5,-6.13,-39.59,-39.71,0,*63
1485011190.11,4798,10.63,74156.0,-6.17,-39.65,-39.79,0,*6F
1485011191.34,4799,10.63,74156.5,-6.17,-39.65,-39.79,0,*6E
1485011192.55,4800,10.63,74160.3,-6.17,-39.47,-39.65,0,*6C
1485011193.77,4801,10.63,74160.0,-6.17,-39.47,-39.53,0,*68
1485011195.0,4802,10.63,74162.0,-6.17,-39.53,-39.65,0,*6B
1485011196.23,4803,10.63,74160.5,-6.17,-39.65,-39.71,0,*6A
1485011197.49,4804,10.63,74162.8,-6.13,-39.71,-39.71,0,*6C
1485011198.72,4805,10.63,74158.8,-6.17,-39.53,-39.65,0,*6C
1485011199.93,4806,10.63,74160.0,-6.17,-39.47,-39.65,0,*6A
1485011201.15,4807,10.63,74160.5,-6.17,-39.53,-39.65,0,*6E
1485011202.38,4808,10.63,74162.3,-6.17,-39.47,-39.71,0,*61
1485011203.59,4809,10.63,74160.3,-6.17,-39.47,-39.65,0,*65
1485011204.81,4810,10.63,74160.8,-6.17,-39.29,-39.47,0,*65
1485011206.06,4811,10.63,74162.3,-6.19,-39.35,-39.41,0,*61
1485011207.28,4812,10.63,74162.0,-6.17,-39.29,-39.47,0,*67
1485011208.53,4813,10.63,74162.8,-6.17,-39.15,-39.29,0,*61
1485011209.76,4814,10.63,74160.8,-6.17,-39.15,-39.35,0,*6B
1485011210.98,4815,10.63,74162.0,-6.17,-39.29,-39.35,0,*65
1485011212.23,4816,10.63,74166.0,-6.13,-39.23,-39.29,0,*65
1485011213.46,4817,10.63,74164.5,-6.13,-39.09,-39.23,0,*66
1485011214.69,4818,10.63,74164.5,-6.13,-39.09,-39.23,0,*69
1485011215.92,4819,10.63,74164.5,-6.13,-39.09,-39.29,0,*62
1485011217.15,4820,10.63,74158.8,-6.13,-39.09,-39.29,0,*68
1485011218.4,4821,10.63,74160.8,-6.13,-39.23,-39.41,0,*6F
1485011219.62,4822,10.63,74162.3,-6.13,-39.29,-39.47,0,*60
1485011220.87,4823,10.63,74160.0,-6.13,-39.29,-39.59,0,*6E
1485011222.09,4824,10.63,74156.8,-6.13,-39.47,-39.65,0,*6E
1485011223.34,4825,10.63,74154.3,-6.13,-39.41,-39.59,0,*66
1485011224.59,4826,10.63,74152.5,-6.13,-39.29,-39.41,0,*62
1485011225.8,4827,10.63,74148.3,-6.13,-39.47,-39.65,0,*6D
1485011227.06,4828,10.63,74148.5,-6.13,-39.59,-39.71,0,*68
1485011228.3,4829,10.63,74152.8,-6.13,-39.71,-39.91,0,*6D
1485011229.54,4830,10.63,74152.0,-6.13,-39.59,-39.65,0,*64
1485011230.8,4831,10.63,74150.5,-6.13,-39.41,-39.59,0,*63
1485011232.02,4832,10.63,74154.0,-6.13,-39.23,-39.47,0,*6B
1485011233.24,4833,10.63,74154.0,-6.13,-39.23,-39.47,0,*6A
1485011234.45,4834,10.63,74156.5,-6.13,-39.47,-39.65,0,*6F
1485011235.67,4835,10.63,74152.8,-6.13,-39.41,-39.47,0,*68
1485011236.93,4836,10.63,74156.0,-6.13,-39.29,-39.59,0,*6A
1485011238.19,4837,10.63,74150.8,-6.13,-39.41,-39.59,0,*65
1485011239.42,4838,10.63,74156.0,-6.13,-39.41,-39.65,0,*65
1485011240.65,4839,10.63,74154.3,-6.13,-39.41,-39.65,0,*64
1485011241.89,4840,10.63,74152.3,-6.13,-39.41,-39.65,0,*6A
1485011243.14,4841,10.63,74156.8,-6.17,-39.53,-39.71,0,*69
1485011244.37,4842,10.63,74156.5,-6.17,-39.71,-39.91,0,*64
1485011245.61,4843,10.63,74154.3,-6.13,-39.71,-39.91,0,*61
1485011246.84,4844,10.63,74158.8,-6.17,-39.71,-39.91,0,*62
1485011248.1,4845,10.63,74160.0,-6.19,-39.71,-39.85,0,*68
1485011249.3,4846,10.63,74158.5,-6.17,-39.65,-39.91,0,*65
1485011250.54,4847,10.63,74158.5,-6.17,-39.71,-39.91,0,*61
1485011251.77,4848,10.63,74152.5,-6.17,-39.65,-39.79,0,*6D
1485011253.03,4849,10.63,74154.8,-6.17,-39.59,-39.71,0,*6B
1485011254.26,4850,10.63,74154.8,-6.17,-39.65,-39.71,0,*6C
1485011255.5,4851,10.63,74156.5,-6.17,-39.71,-39.91,0,*66
1485011256.73,4852,10.63,74156.8,-6.17,-39.71,-39.91,0,*65
1485011257.97,4853,10.63,74156.0,-6.17,-39.79,-39.91,0,*6C
1485011259.21,4854,10.63,74162.3,-6.17,-39.79,-39.91,0,*6B
1485011260.46,4855,10.63,74158.8,-6.19,-39.85,-39.97,0,*61
1485011261.7,4856,10.63,74160.8,-6.17,-39.65,-39.79,0,*62
1485011262.95,4857,10.63,74156.8,-6.17,-39.71,-39.79,0,*66
1485011264.24,4858,10.63,74158.5,-6.19,-39.53,-39.71,0,*6F
1485011265.51,4859,10.63,74156.0,-6.19,-39.53,-39.53,0,*6E
1485011266.79,4860,10.63,74160.8,-6.19,-39.53,-39.71,0,*64
1485011268.07,4861,10.63,74152.8,-6.19,-39.53,-39.71,0,*65
1485011269.29,4862,10.63,74156.0,-6.17,-39.29,-39.47,0,*60
1485011270.57,4863,10.63,74158.3,-6.19,-39.53,-39.59,0,*6D
1485011271.82,4864,10.63,74160.0,-6.21,-39.41,-39.53,0,*68
1485011273.07,4865,10.63,74158.8,-6.19,-39.35,-39.53,0,*61
1485011274.36,4866,10.63,74158.8,-6.19,-39.59,-39.79,0,*60
1485011275.64,4867,10.63,74154.0,-6.19,-39.53,-39.71,0,*63
1485011276.9,4868,10.63,74154.3,-6.19,-39.79,-40.03,0,*6F
1485011278.15,4869,10.63,74154.3,-6.19,-39.97,-40.03,0,*6E
1485011279.38,4870,10.63,74154.3,-6.21,-39.97,-40.15,0,*6A
1485011280.61,4871,10.63,74154.0,-6.21,-39.79,-39.85,0,*6C
1485011281.87,4872,10.63,74152.8,-6.21,-39.79,-39.97,0,*6C
1485011283.1,4873,10.63,74154.5,-6.21,-39.85,-39.97,0,*6E
1485011284.35,4874,10.63,74156.0,-6.21,-39.53,-39.71,0,*6A
1485011285.6,4875,10.63,74154.8,-6.21,-39.53,-39.59,0,*61
1485011286.85,4876,10.63,74154.5,-6.21,-39.41,-39.53,0,*6B
1485011288.07,4877,10.63,74154.8,-6.21,-39.35,-39.53,0,*69
1485011289.29,4878,10.63,74154.8,-6.21,-39.35,-39.53,0,*66
1485011290.51,4879,10.63,74156.0,-6.21,-39.35,-39.41,0,*64
1485011291.76,4880,10.63,74156.8,-6.21,-39.41,-39.53,0,*62
1485011293.02,4881,10.63,74154.3,-6.23,-39.59,-39.65,0,*6D
1485011294.28,4882,10.63,74154.5,-6.21,-39.53,-39.79,0,*6B
1485011295.53,4883,10.63,74152.5,-6.21,-39.41,-39.59,0,*6B
1485011296.78,4884,10.63,74156.0,-6.21,-39.53,-39.71,0,*65
1485011298.01,4885,10.63,74156.3,-6.21,-39.59,-39.85,0,*65
1485011299.24,4886,10.63,74154.5,-6.21,-39.71,-39.85,0,*6C
1485011300.47,4887,10.63,74154.0,-6.23,-39.65,-39.85,0,*6A
1485011301.73,4888,10.63,74156.5,-6.21,-39.79,-39.97,0,*69
1485011302.94,4889,10.63,74156.5,-6.21,-39.85,-40.03,0,*68
1485011304.2,4890,10.63,74158.3,-6.23,-39.91,-40.09,0,*6D